Okean 1-7 - Orbit

View from above orbital plane
View from above orbital plane
View from above satellite
View from above satellite

Ground track
Ground track

The orbit data is extracted from the following two-line orbital elements,

1 23317U 94066A   13139.49051069  .00001325  00000-0  15421-3 0  2228
2 23317 082.5402 076.6518 0019861 324.3316 154.2271 14.84439878  4685
Epoch (UTC): 19 May 2013 11:46:20
Eccentricity: 0.0019861
inclination: 82.5402°
perigee height: 601 km
apogee height: 629 km
right ascension of ascending node: 76.6518°
argument of perigee: 324.3316°
revolutions per day: 14.84439878
mean anomaly at epoch: 154.2271°
orbit number at epoch: 468

The dashed part of the orbit path shows where the satellite is in the earth's shadow,  

Developed and maintained by Chris Peat, Heavens-Above GmbH. Please read the updated FAQ before sending e-mail. Imprint. DLR